P/2023 KF3

Japanese version
Home page
Updated on September 28, 2023

---------------------------------------------------------------------

* Profile

Designation P/2023 KF3
Discovery Date May 24, 2023
Magnitude 20.6 mag
Discoverer Mt. Lemmon

* Pictures

* Orbital Elements

                    Epoch = 2023 Dec.  2.0 TT
     T = 2023 Dec. 20.29410 TT        Peri. =  94.95909
     e = 0.6279845                    Node  = 283.34162 2000.0
     q = 2.1234083 AU                 Incl. =   4.79088
       a =  5.7078491 AU   n = 0.07227621   P =  13.64 years

* Magnitudes Graph

        m1 = 4.5 + 5 log d + 30.0 log r

---------------------------------------------------------------------

The orbital elements are printed on CBET 5292.
The magnitudes graphs are made with Comet for Windows.

---------------------------------------------------------------------

Copyright(C) Seiichi Yoshida (comet@aerith.net). All rights reserved.